Regional Weather Roundup
Issued by NWS Binghamton, NY

Home | Current Version | Previous Version | Text Only | Print | Product List | Glossary On
Versions: 1 2 3 4 5 6 7 8 9 10 11 12 13 14 15 16 17 18 19 20 21 22 23 24 25 26 27 28 29 30 31 32 33 34 35 36 37 38 39 40 41 42 43 44 45 46 47 48 49 50
000
ASUS41 KBGM 301610
RWRBGM
RWRBGM
BINGHAMTON REGIONAL WEATHER ROUNDUP
NATIONAL WEATHER SERVICE BINGHAMTON NY
1200 PM EDT THU JUL 30 2015

Note: "fair" indicates few or no clouds below 12,000 feet with no
significant weather and/or obstructions to visibility.

* = Station(s) that does not report precipitation, such as rain,
snow, etc, also no thunder or fog.

!NYZ009-015>018-022>025-036-037-044>046-055>057-062-301700
...CENTRAL NEW YORK...

CITY           SKY/WX    TMP DP  RH WIND       PRES   REMARKS
BINGHAMTON     CLOUDY    76  73  91 W12       29.90S
CORTLAND       PTSUNNY   77  72  83 W12G17    29.90R
DANSVILLE      MOSUNNY   81  59  47 VRB6      29.89S
ELMIRA         MOSUNNY   81  67  62 W14G21    29.88R
ITHACA         PTSUNNY   78  71  79 NW10      29.90R
HORNELL          N/A     79  59  50 W12G18    29.95R
MONTICELLO     CLOUDY    79  73  83 S6        29.92S
NORWICH        PTSUNNY   75  72  88 CALM      29.87S
PENN YAN       PTSUNNY   78  66  66 W7        29.89R
ROME           CLOUDY    74  72  93 W6        29.84S
SIDNEY         PTSUNNY   75  75 100 CALM      29.88S
SYRACUSE       CLOUDY    80  73  79 W12       29.83R
$$

!PAZ038>040-043-044-047-048-072-301700
...NORTHEAST PENNSYLVANIA...

CITY           SKY/WX    TMP DP  RH WIND       PRES   REMARKS
HAZLETON       CLOUDY    77  72  83 SW6       29.97S
SCRANTON       HVY RAIN  79  73  82 SW8       29.89S
TOWANDA*       PTSUNNY   82  72  69 MISG      29.89  HX  87
$$
&&
KEY
WCI = WIND CHILL INDEX
VSB = VISIBILITY
HX  = HEAT INDEX
$$


USA.gov is the U.S. government's official web portal to all federal, state and local government web resources and services.